iso_date,Year,Hour,Min,DOY,POS_DOY,Lat,Lon,BP,Ts,Ta,has_bp,has_ts,has_ta,BuoyID,Buoy_Type,Buoy_Owner,Logistics,Hemisphere
2022-04-04T01:35:11Z,2022,1,35,94.0661,94.0661,72.34759,-154.84129,1016.74,-15.75,-999.0,yes,yes,no,300434063194510,SeaCadet,NAL/USIABP,UTQ_2022,North
2022-04-04T07:35:28Z,2022,7,35,94.3163,94.3163,72.33659,-154.95152,1015.21,-21.0,-999.0,yes,yes,no,300434063194510,SeaCadet,NAL/USIABP,UTQ_2022,North
2022-04-04T13:35:11Z,2022,13,35,94.5661,94.5661,72.31783,-155.03264,1011.08,-23.31,-999.0,yes,yes,no,300434063194510,SeaCadet,NAL/USIABP,UTQ_2022,North
2022-04-04T19:35:02Z,2022,19,35,94.816,94.816,72.29106,-155.11426,1007.79,-17.88,-999.0,yes,yes,no,300434063194510,SeaCadet,NAL/USIABP,UTQ_2022,North
2022-04-05T01:34:36Z,2022,1,34,95.0657,95.0657,72.25401,-155.20242,1006.16,-15.5,-999.0,yes,yes,no,300434063194510,SeaCadet,NAL/USIABP,UTQ_2022,North
2022-04-05T07:34:19Z,2022,7,34,95.3155,95.3155,72.23053,-155.26372,1005.08,-25.44,-999.0,yes,yes,no,300434063194510,SeaCadet,NAL/USIABP,UTQ_2022,North
2022-04-05T19:35:02Z,2022,19,35,95.816,95.816,72.20836,-155.31029,1005.73,-13.19,-999.0,yes,yes,no,300434063194510,SeaCadet,NAL/USIABP,UTQ_2022,North
2022-04-06T01:35:02Z,2022,1,34,96.066,96.066,72.20902,-155.34164,1009.02,-15.88,-999.0,yes,yes,no,300434063194510,SeaCadet,NAL/USIABP,UTQ_2022,North
2022-04-06T07:34:36Z,2022,7,34,96.3157,96.3157,72.21819,-155.35739,1013.56,-25.75,-999.0,yes,yes,no,300434063194510,SeaCadet,NAL/USIABP,UTQ_2022,North
2022-04-06T13:35:02Z,2022,13,35,96.566,96.566,72.21749,-155.36102,1017.08,-26.25,-999.0,yes,yes,no,300434063194510,SeaCadet,NAL/USIABP,UTQ_2022,North
2022-04-06T19:34:53Z,2022,19,34,96.8159,96.8159,72.21674,-155.3699,1018.11,-15.13,-999.0,yes,yes,no,300434063194510,SeaCadet,NAL/USIABP,UTQ_2022,North
2022-04-07T01:34:27Z,2022,1,34,97.0656,97.0656,72.21446,-155.41995,1018.34,-9.63,-999.0,yes,yes,no,300434063194510,SeaCadet,NAL/USIABP,UTQ_2022,North
2022-04-07T07:35:36Z,2022,7,35,97.3164,97.3164,72.21033,-155.48621,1016.97,-21.31,-999.0,yes,yes,no,300434063194510,SeaCadet,NAL/USIABP,UTQ_2022,North
2022-04-07T13:35:11Z,2022,13,35,97.5661,97.5661,72.20045,-155.57622,1015.06,-20.0,-999.0,yes,yes,no,300434063194510,SeaCadet,NAL/USIABP,UTQ_2022,North
2022-04-07T19:34:36Z,2022,19,34,97.8157,97.8157,72.20013,-155.62837,1015.15,-12.31,-999.0,yes,yes,no,300434063194510,SeaCadet,NAL/USIABP,UTQ_2022,North
2022-04-08T01:34:45Z,2022,1,34,98.0658,98.0658,72.20373,-155.65613,1015.74,-6.88,-999.0,yes,yes,no,300434063194510,SeaCadet,NAL/USIABP,UTQ_2022,North
2022-04-08T07:35:11Z,2022,7,35,98.3161,98.3161,72.20406,-155.72418,1014.23,-17.06,-999.0,yes,yes,no,300434063194510,SeaCadet,NAL/USIABP,UTQ_2022,North
2022-04-08T13:34:27Z,2022,13,34,98.5656,98.5656,72.20456,-155.77493,1014.37,-17.56,-999.0,yes,yes,no,300434063194510,SeaCadet,NAL/USIABP,UTQ_2022,North
2022-04-08T19:34:45Z,2022,19,34,98.8158,98.8158,72.21369,-155.78529,1018.25,-13.69,-999.0,yes,yes,no,300434063194510,SeaCadet,NAL/USIABP,UTQ_2022,North
2022-04-09T01:34:53Z,2022,1,34,99.0659,99.0659,72.21305,-155.6913,1024.18,-13.94,-999.0,yes,yes,no,300434063194510,SeaCadet,NAL/USIABP,UTQ_2022,North
2022-04-09T07:34:45Z,2022,7,34,99.3158,99.3158,72.2133,-155.62669,1028.88,-18.88,-999.0,yes,yes,no,300434063194510,SeaCadet,NAL/USIABP,UTQ_2022,North
2022-04-09T13:34:53Z,2022,13,34,99.5659,99.5659,72.21806,-155.59482,1032.91,-23.31,-999.0,yes,yes,no,300434063194510,SeaCadet,NAL/USIABP,UTQ_2022,North
2022-04-09T19:35:02Z,2022,19,35,99.816,99.816,72.22208,-155.58342,1034.39,-10.44,-999.0,yes,yes,no,300434063194510,SeaCadet,NAL/USIABP,UTQ_2022,North
2022-04-10T01:34:53Z,2022,1,34,100.0659,100.0659,72.22747,-155.582,1034.84,-11.69,-999.0,yes,yes,no,300434063194510,SeaCadet,NAL/USIABP,UTQ_2022,North
2022-04-10T07:34:53Z,2022,7,34,100.3159,100.3159,72.23141,-155.59462,1035.76,-22.5,-999.0,yes,yes,no,300434063194510,SeaCadet,NAL/USIABP,UTQ_2022,North
2022-04-10T13:34:19Z,2022,13,34,100.5655,100.5655,72.23497,-155.60704,1037.84,-23.88,-999.0,yes,yes,no,300434063194510,SeaCadet,NAL/USIABP,UTQ_2022,North
2022-04-10T19:34:53Z,2022,19,34,100.8159,100.8159,72.23857,-155.63609,1039.53,-15.88,-999.0,yes,yes,no,300434063194510,SeaCadet,NAL/USIABP,UTQ_2022,North
2022-04-11T01:34:36Z,2022,1,34,101.0657,101.0657,72.25108,-155.68422,1040.44,-15.19,-999.0,yes,yes,no,300434063194510,SeaCadet,NAL/USIABP,UTQ_2022,North
2022-04-11T07:34:45Z,2022,7,34,101.3158,101.3158,72.27078,-155.72313,1038.63,-16.5,-999.0,yes,yes,no,300434063194510,SeaCadet,NAL/USIABP,UTQ_2022,North
2022-04-11T13:34:45Z,2022,13,34,101.5658,101.5658,72.2934,-155.72983,1036.38,-12.56,-999.0,yes,yes,no,300434063194510,SeaCadet,NAL/USIABP,UTQ_2022,North
2022-04-11T19:35:28Z,2022,19,35,101.8163,101.8163,72.30975,-155.68987,1035.24,-2.94,-999.0,yes,yes,no,300434063194510,SeaCadet,NAL/USIABP,UTQ_2022,North
2022-04-12T01:35:11Z,2022,1,35,102.0661,102.0661,72.32161,-155.61546,1034.07,-3.88,-999.0,yes,yes,no,300434063194510,SeaCadet,NAL/USIABP,UTQ_2022,North
2022-04-12T07:35:02Z,2022,7,34,102.316,102.316,72.30463,-155.58371,1036.68,-14.0,-999.0,yes,yes,no,300434063194510,SeaCadet,NAL/USIABP,UTQ_2022,North
2022-04-12T13:34:53Z,2022,13,34,102.5659,102.5659,72.29187,-155.59241,1038.34,-20.63,-999.0,yes,yes,no,300434063194510,SeaCadet,NAL/USIABP,UTQ_2022,North
2022-04-12T19:35:02Z,2022,19,35,102.816,102.816,72.28474,-155.56732,1038.82,-16.0,-999.0,yes,yes,no,300434063194510,SeaCadet,NAL/USIABP,UTQ_2022,North
2022-04-13T01:35:02Z,2022,1,35,103.066,103.066,72.27461,-155.51495,1039.11,-12.88,-999.0,yes,yes,no,300434063194510,SeaCadet,NAL/USIABP,UTQ_2022,North
2022-04-13T07:35:11Z,2022,7,35,103.3161,103.3161,72.2656,-155.49117,1040.87,-21.25,-999.0,yes,yes,no,300434063194510,SeaCadet,NAL/USIABP,UTQ_2022,North
2022-04-13T13:35:11Z,2022,13,35,103.5661,103.5661,72.26564,-155.49124,1042.5,-24.38,-999.0,yes,yes,no,300434063194510,SeaCadet,NAL/USIABP,UTQ_2022,North
2022-04-13T19:35:02Z,2022,19,35,103.816,103.816,72.26319,-155.49913,1043.04,-12.75,-999.0,yes,yes,no,300434063194510,SeaCadet,NAL/USIABP,UTQ_2022,North
2022-04-14T01:35:19Z,2022,1,35,104.0662,104.0662,72.25922,-155.53885,1042.67,-6.38,-999.0,yes,yes,no,300434063194510,SeaCadet,NAL/USIABP,UTQ_2022,North
2022-04-14T07:35:02Z,2022,7,34,104.316,104.316,72.25346,-155.60909,1042.63,-22.5,-999.0,yes,yes,no,300434063194510,SeaCadet,NAL/USIABP,UTQ_2022,North
2022-04-14T13:34:45Z,2022,13,34,104.5658,104.5658,72.25336,-155.68329,1042.74,-23.63,-999.0,yes,yes,no,300434063194510,SeaCadet,NAL/USIABP,UTQ_2022,North
2022-04-14T19:34:45Z,2022,19,34,104.8158,104.8158,72.25388,-155.75354,1043.11,-13.56,-999.0,yes,yes,no,300434063194510,SeaCadet,NAL/USIABP,UTQ_2022,North
2022-04-15T01:34:36Z,2022,1,34,105.0657,105.0657,72.25613,-155.83827,1042.59,-8.69,-999.0,yes,yes,no,300434063194510,SeaCadet,NAL/USIABP,UTQ_2022,North
2022-04-15T07:34:45Z,2022,7,34,105.3158,105.3158,72.25498,-155.9146,1042.07,-19.94,-999.0,yes,yes,no,300434063194510,SeaCadet,NAL/USIABP,UTQ_2022,North
2022-04-15T13:34:19Z,2022,13,34,105.5655,105.5655,72.26091,-156.02518,1040.98,-22.0,-999.0,yes,yes,no,300434063194510,SeaCadet,NAL/USIABP,UTQ_2022,North
2022-04-15T19:35:36Z,2022,19,35,105.8164,105.8164,72.26709,-156.14018,1039.84,-15.06,-999.0,yes,yes,no,300434063194510,SeaCadet,NAL/USIABP,UTQ_2022,North
2022-04-16T01:35:11Z,2022,1,35,106.0661,106.0661,72.28233,-156.28517,1037.99,-10.94,-999.0,yes,yes,no,300434063194510,SeaCadet,NAL/USIABP,UTQ_2022,North
2022-04-16T07:35:36Z,2022,7,35,106.3164,106.3164,72.29479,-156.38223,1037.2,-18.31,-999.0,yes,yes,no,300434063194510,SeaCadet,NAL/USIABP,UTQ_2022,North
2022-04-16T13:35:02Z,2022,13,34,106.566,106.566,72.30615,-156.46497,1036.09,-19.63,-999.0,yes,yes,no,300434063194510,SeaCadet,NAL/USIABP,UTQ_2022,North
2022-04-16T19:35:11Z,2022,19,35,106.8161,106.8161,72.31164,-156.52499,1034.71,-11.75,-999.0,yes,yes,no,300434063194510,SeaCadet,NAL/USIABP,UTQ_2022,North
2022-04-17T01:35:19Z,2022,1,35,107.0662,107.0662,72.32391,-156.60655,1032.24,-7.25,-999.0,yes,yes,no,300434063194510,SeaCadet,NAL/USIABP,UTQ_2022,North
2022-04-17T07:34:53Z,2022,7,34,107.3159,107.3159,72.33566,-156.63118,1030.75,-16.06,-999.0,yes,yes,no,300434063194510,SeaCadet,NAL/USIABP,UTQ_2022,North
2022-04-17T13:35:02Z,2022,13,35,107.566,107.566,72.34125,-156.65569,1029.18,-18.13,-999.0,yes,yes,no,300434063194510,SeaCadet,NAL/USIABP,UTQ_2022,North
2022-04-17T19:35:19Z,2022,19,35,107.8162,107.8162,72.34747,-156.65823,1027.16,-9.38,-999.0,yes,yes,no,300434063194510,SeaCadet,NAL/USIABP,UTQ_2022,North
2022-04-18T01:35:28Z,2022,1,35,108.0663,108.0663,72.35365,-156.68263,1025.05,-3.0,-999.0,yes,yes,no,300434063194510,SeaCadet,NAL/USIABP,UTQ_2022,North
2022-04-18T07:34:45Z,2022,7,34,108.3158,108.3158,72.35681,-156.69342,1023.63,-17.81,-999.0,yes,yes,no,300434063194510,SeaCadet,NAL/USIABP,UTQ_2022,North
2022-04-18T13:35:36Z,2022,13,35,108.5664,108.5664,72.3599,-156.71552,1022.4,-21.13,-999.0,yes,yes,no,300434063194510,SeaCadet,NAL/USIABP,UTQ_2022,North
2022-04-18T19:35:36Z,2022,19,35,108.8164,108.8164,72.3629,-156.73251,1020.74,-6.06,-999.0,yes,yes,no,300434063194510,SeaCadet,NAL/USIABP,UTQ_2022,North
2022-04-19T01:35:02Z,2022,1,35,109.066,109.066,72.36424,-156.77426,1019.46,0.5,-999.0,yes,yes,no,300434063194510,SeaCadet,NAL/USIABP,UTQ_2022,North
2022-04-19T07:34:45Z,2022,7,34,109.3158,109.3158,72.36915,-156.80707,1019.31,-16.88,-999.0,yes,yes,no,300434063194510,SeaCadet,NAL/USIABP,UTQ_2022,North
2022-04-19T13:35:19Z,2022,13,35,109.5662,109.5662,72.37178,-156.83881,1020.11,-20.19,-999.0,yes,yes,no,300434063194510,SeaCadet,NAL/USIABP,UTQ_2022,North
2022-04-19T19:35:19Z,2022,19,35,109.8162,109.8162,72.37559,-156.86389,1020.98,-7.81,-999.0,yes,yes,no,300434063194510,SeaCadet,NAL/USIABP,UTQ_2022,North
2022-04-20T01:34:53Z,2022,1,34,110.0659,110.0659,72.37601,-156.91586,1021.63,-1.63,-999.0,yes,yes,no,300434063194510,SeaCadet,NAL/USIABP,UTQ_2022,North
2022-04-20T07:35:28Z,2022,7,35,110.3163,110.3163,72.38052,-156.96223,1022.73,-16.19,-999.0,yes,yes,no,300434063194510,SeaCadet,NAL/USIABP,UTQ_2022,North
2022-04-20T13:35:02Z,2022,13,35,110.566,110.566,72.38284,-156.99861,1023.25,-19.56,-999.0,yes,yes,no,300434063194510,SeaCadet,NAL/USIABP,UTQ_2022,North
2022-04-20T19:34:45Z,2022,19,34,110.8158,110.8158,72.38694,-157.04308,1022.91,-9.75,-999.0,yes,yes,no,300434063194510,SeaCadet,NAL/USIABP,UTQ_2022,North
2022-04-21T01:35:28Z,2022,1,35,111.0663,111.0663,72.39401,-157.11087,1021.47,-6.06,-999.0,yes,yes,no,300434063194510,SeaCadet,NAL/USIABP,UTQ_2022,North
2022-04-21T07:35:02Z,2022,7,35,111.316,111.316,72.40729,-157.17284,1020.44,-16.69,-999.0,yes,yes,no,300434063194510,SeaCadet,NAL/USIABP,UTQ_2022,North
2022-04-21T13:35:02Z,2022,13,35,111.566,111.566,72.41885,-157.20001,1018.87,-18.06,-999.0,yes,yes,no,300434063194510,SeaCadet,NAL/USIABP,UTQ_2022,North
2022-04-21T19:35:19Z,2022,19,35,111.8162,111.8162,72.43168,-157.2244,1016.61,-8.13,-999.0,yes,yes,no,300434063194510,SeaCadet,NAL/USIABP,UTQ_2022,North
2022-04-22T01:35:54Z,2022,1,35,112.0666,112.0666,72.44786,-157.24834,1013.46,-2.13,-999.0,yes,yes,no,300434063194510,SeaCadet,NAL/USIABP,UTQ_2022,North
2022-04-22T07:35:02Z,2022,7,35,112.316,112.316,72.4648,-157.28766,1011.08,-11.81,-999.0,yes,yes,no,300434063194510,SeaCadet,NAL/USIABP,UTQ_2022,North
2022-04-22T13:34:45Z,2022,13,34,112.5658,112.5658,72.47942,-157.29228,1008.67,-15.0,-999.0,yes,yes,no,300434063194510,SeaCadet,NAL/USIABP,UTQ_2022,North
2022-04-22T19:34:45Z,2022,19,34,112.8158,112.8158,72.48904,-157.2952,1007.36,-8.94,-999.0,yes,yes,no,300434063194510,SeaCadet,NAL/USIABP,UTQ_2022,North
2022-04-23T01:34:27Z,2022,1,34,113.0656,113.0656,72.49667,-157.28592,1007.16,-8.06,-999.0,yes,yes,no,300434063194510,SeaCadet,NAL/USIABP,UTQ_2022,North
2022-04-23T07:35:36Z,2022,7,35,113.3164,113.3164,72.49875,-157.29317,1009.12,-13.25,-999.0,yes,yes,no,300434063194510,SeaCadet,NAL/USIABP,UTQ_2022,North
2022-04-23T19:34:45Z,2022,19,34,113.8158,113.8158,72.49934,-157.29366,1013.64,-10.81,-999.0,yes,yes,no,300434063194510,SeaCadet,NAL/USIABP,UTQ_2022,North
2022-04-24T01:35:28Z,2022,1,35,114.0663,114.0663,72.49978,-157.29013,1016.1,-6.88,-999.0,yes,yes,no,300434063194510,SeaCadet,NAL/USIABP,UTQ_2022,North
2022-04-24T07:34:45Z,2022,7,34,114.3158,114.3158,72.4993,-157.30235,1018.4,-14.56,-999.0,yes,yes,no,300434063194510,SeaCadet,NAL/USIABP,UTQ_2022,North
2022-04-24T13:35:19Z,2022,13,35,114.5662,114.5662,72.50172,-157.32164,1019.91,-15.31,-999.0,yes,yes,no,300434063194510,SeaCadet,NAL/USIABP,UTQ_2022,North
2022-04-24T19:34:53Z,2022,19,34,114.8159,114.8159,72.50174,-157.36021,1021.28,-8.06,-999.0,yes,yes,no,300434063194510,SeaCadet,NAL/USIABP,UTQ_2022,North
2022-04-25T01:34:45Z,2022,1,34,115.0658,115.0658,72.49905,-157.40834,1022.24,-6.56,-999.0,yes,yes,no,300434063194510,SeaCadet,NAL/USIABP,UTQ_2022,North
2022-04-25T07:35:28Z,2022,7,35,115.3163,115.3163,72.48623,-157.46094,1024.1,-13.0,-999.0,yes,yes,no,300434063194510,SeaCadet,NAL/USIABP,UTQ_2022,North
2022-04-25T13:35:11Z,2022,13,35,115.5661,115.5661,72.47613,-157.49716,1025.71,-13.38,-999.0,yes,yes,no,300434063194510,SeaCadet,NAL/USIABP,UTQ_2022,North
2022-04-25T19:35:02Z,2022,19,35,115.816,115.816,72.46161,-157.53804,1027.15,-9.5,-999.0,yes,yes,no,300434063194510,SeaCadet,NAL/USIABP,UTQ_2022,North
2022-04-26T01:34:53Z,2022,1,34,116.0659,116.0659,72.44822,-157.61023,1028.52,-4.0,-999.0,yes,yes,no,300434063194510,SeaCadet,NAL/USIABP,UTQ_2022,North
2022-04-26T07:35:19Z,2022,7,35,116.3162,116.3162,72.43562,-157.68214,1030.78,-13.0,-999.0,yes,yes,no,300434063194510,SeaCadet,NAL/USIABP,UTQ_2022,North
2022-04-26T13:34:45Z,2022,13,34,116.5658,116.5658,72.43009,-157.75215,1033.25,-15.0,-999.0,yes,yes,no,300434063194510,SeaCadet,NAL/USIABP,UTQ_2022,North
2022-04-26T19:34:53Z,2022,19,34,116.8159,116.8159,72.42078,-157.82811,1034.54,-10.81,-999.0,yes,yes,no,300434063194510,SeaCadet,NAL/USIABP,UTQ_2022,North
2022-04-27T01:34:27Z,2022,1,34,117.0656,117.0656,72.41908,-157.90863,1036.07,-9.13,-999.0,yes,yes,no,300434063194510,SeaCadet,NAL/USIABP,UTQ_2022,North
2022-04-27T07:34:53Z,2022,7,34,117.3159,117.3159,72.4166,-157.97757,1037.44,-14.25,-999.0,yes,yes,no,300434063194510,SeaCadet,NAL/USIABP,UTQ_2022,North
2022-04-27T13:34:36Z,2022,13,34,117.5657,117.5657,72.42167,-158.04187,1038.41,-15.25,-999.0,yes,yes,no,300434063194510,SeaCadet,NAL/USIABP,UTQ_2022,North
2022-04-27T19:35:02Z,2022,19,35,117.816,117.816,72.42531,-158.10385,1038.19,-10.44,-999.0,yes,yes,no,300434063194510,SeaCadet,NAL/USIABP,UTQ_2022,North
2022-04-28T01:35:02Z,2022,1,35,118.066,118.066,72.43583,-158.16895,1037.34,-10.5,-999.0,yes,yes,no,300434063194510,SeaCadet,NAL/USIABP,UTQ_2022,North
2022-04-28T07:34:45Z,2022,7,34,118.3158,118.3158,72.44292,-158.2168,1035.55,-16.0,-999.0,yes,yes,no,300434063194510,SeaCadet,NAL/USIABP,UTQ_2022,North
2022-04-28T13:34:45Z,2022,13,34,118.5658,118.5658,72.45504,-158.26129,1033.29,-17.69,-999.0,yes,yes,no,300434063194510,SeaCadet,NAL/USIABP,UTQ_2022,North
2022-04-28T19:34:36Z,2022,19,34,118.8157,118.8157,72.47053,-158.32446,1030.44,-11.25,-999.0,yes,yes,no,300434063194510,SeaCadet,NAL/USIABP,UTQ_2022,North
2022-04-29T01:35:02Z,2022,1,35,119.066,119.066,72.49564,-158.40088,1026.82,-8.25,-999.0,yes,yes,no,300434063194510,SeaCadet,NAL/USIABP,UTQ_2022,North
2022-04-29T07:34:45Z,2022,7,34,119.3158,119.3158,72.51987,-158.42838,1024.39,-14.13,-999.0,yes,yes,no,300434063194510,SeaCadet,NAL/USIABP,UTQ_2022,North
2022-04-29T13:35:19Z,2022,13,35,119.5662,119.5662,72.54133,-158.44603,1022.17,-13.56,-999.0,yes,yes,no,300434063194510,SeaCadet,NAL/USIABP,UTQ_2022,North
2022-04-29T19:34:45Z,2022,19,34,119.8158,119.8158,72.55992,-158.44884,1019.6,-10.81,-999.0,yes,yes,no,300434063194510,SeaCadet,NAL/USIABP,UTQ_2022,North
2022-04-30T01:34:27Z,2022,1,34,120.0656,120.0656,72.58123,-158.46773,1016.91,-8.56,-999.0,yes,yes,no,300434063194510,SeaCadet,NAL/USIABP,UTQ_2022,North
2022-04-30T07:35:19Z,2022,7,35,120.3162,120.3162,72.59531,-158.46286,1016.0,-8.94,-999.0,yes,yes,no,300434063194510,SeaCadet,NAL/USIABP,UTQ_2022,North
2022-04-30T13:35:54Z,2022,13,35,120.5666,120.5666,72.60355,-158.47244,1015.44,-7.19,-999.0,yes,yes,no,300434063194510,SeaCadet,NAL/USIABP,UTQ_2022,North
2022-04-30T19:35:36Z,2022,19,35,120.8164,120.8164,72.60786,-158.4677,1015.23,-4.75,-999.0,yes,yes,no,300434063194510,SeaCadet,NAL/USIABP,UTQ_2022,North
2022-05-01T01:35:28Z,2022,1,35,121.0663,121.0663,72.60803,-158.48473,1015.65,-4.25,-999.0,yes,yes,no,300434063194510,SeaCadet,NAL/USIABP,UTQ_2022,North
2022-05-01T07:35:36Z,2022,7,35,121.3164,121.3164,72.59975,-158.49474,1016.56,-8.94,-999.0,yes,yes,no,300434063194510,SeaCadet,NAL/USIABP,UTQ_2022,North
2022-05-01T13:34:53Z,2022,13,34,121.5659,121.5659,72.58912,-158.54771,1015.48,-10.25,-999.0,yes,yes,no,300434063194510,SeaCadet,NAL/USIABP,UTQ_2022,North
2022-05-01T19:34:27Z,2022,19,34,121.8156,121.8156,72.57069,-158.61169,1012.64,-8.13,-999.0,yes,yes,no,300434063194510,SeaCadet,NAL/USIABP,UTQ_2022,North
2022-05-02T01:35:02Z,2022,1,35,122.066,122.066,72.54079,-158.70544,1008.59,-8.44,-999.0,yes,yes,no,300434063194510,SeaCadet,NAL/USIABP,UTQ_2022,North
2022-05-02T07:35:28Z,2022,7,35,122.3163,122.3163,72.5235,-158.74991,1005.59,-9.63,-999.0,yes,yes,no,300434063194510,SeaCadet,NAL/USIABP,UTQ_2022,North
2022-05-02T13:35:02Z,2022,13,35,122.566,122.566,72.51848,-158.77524,1003.66,-9.31,-999.0,yes,yes,no,300434063194510,SeaCadet,NAL/USIABP,UTQ_2022,North
2022-05-02T19:35:28Z,2022,19,35,122.8163,122.8163,72.52366,-158.7881,1003.48,-8.06,-999.0,yes,yes,no,300434063194510,SeaCadet,NAL/USIABP,UTQ_2022,North
2022-05-03T01:35:02Z,2022,1,35,123.066,123.066,72.52389,-158.84978,1003.09,-6.06,-999.0,yes,yes,no,300434063194510,SeaCadet,NAL/USIABP,UTQ_2022,North
2022-05-03T07:35:02Z,2022,7,35,123.316,123.316,72.52758,-158.91505,1003.78,-7.13,-999.0,yes,yes,no,300434063194510,SeaCadet,NAL/USIABP,UTQ_2022,North
2022-05-03T13:35:02Z,2022,13,35,123.566,123.566,72.51634,-158.98604,1004.85,-7.31,-999.0,yes,yes,no,300434063194510,SeaCadet,NAL/USIABP,UTQ_2022,North
2022-05-03T19:35:02Z,2022,19,35,123.816,123.816,72.5014,-159.04944,1005.69,-6.56,-999.0,yes,yes,no,300434063194510,SeaCadet,NAL/USIABP,UTQ_2022,North
2022-05-04T01:34:53Z,2022,1,34,124.0659,124.0659,72.47488,-159.1302,1007.27,-6.25,-999.0,yes,yes,no,300434063194510,SeaCadet,NAL/USIABP,UTQ_2022,North
2022-05-04T07:34:53Z,2022,7,34,124.3159,124.3159,72.45203,-159.2198,1009.32,-7.31,-999.0,yes,yes,no,300434063194510,SeaCadet,NAL/USIABP,UTQ_2022,North
2022-05-04T13:35:02Z,2022,13,35,124.566,124.566,72.42754,-159.30872,1012.11,-8.38,-999.0,yes,yes,no,300434063194510,SeaCadet,NAL/USIABP,UTQ_2022,North
2022-05-04T19:34:27Z,2022,19,34,124.8156,124.8156,72.40415,-159.38374,1014.58,-8.0,-999.0,yes,yes,no,300434063194510,SeaCadet,NAL/USIABP,UTQ_2022,North
2022-05-05T01:35:02Z,2022,1,35,125.066,125.066,72.38196,-159.48143,1015.84,-7.56,-999.0,yes,yes,no,300434063194510,SeaCadet,NAL/USIABP,UTQ_2022,North
2022-05-05T07:35:28Z,2022,7,35,125.3163,125.3163,72.3713,-159.57498,1017.28,-8.81,-999.0,yes,yes,no,300434063194510,SeaCadet,NAL/USIABP,UTQ_2022,North
2022-05-05T13:34:36Z,2022,13,34,125.5657,125.5657,72.36578,-159.62672,1018.25,-9.81,-999.0,yes,yes,no,300434063194510,SeaCadet,NAL/USIABP,UTQ_2022,North
2022-05-05T19:35:02Z,2022,19,35,125.816,125.816,72.35965,-159.68494,1018.76,-9.56,-999.0,yes,yes,no,300434063194510,SeaCadet,NAL/USIABP,UTQ_2022,North
2022-05-06T01:34:27Z,2022,1,34,126.0656,126.0656,72.35258,-159.77037,1018.17,-8.06,-999.0,yes,yes,no,300434063194510,SeaCadet,NAL/USIABP,UTQ_2022,North
2022-05-06T07:35:28Z,2022,7,35,126.3163,126.3163,72.35496,-159.85614,1017.94,-9.5,-999.0,yes,yes,no,300434063194510,SeaCadet,NAL/USIABP,UTQ_2022,North
2022-05-06T13:35:36Z,2022,13,35,126.5664,126.5664,72.3591,-159.91815,1017.07,-10.38,-999.0,yes,yes,no,300434063194510,SeaCadet,NAL/USIABP,UTQ_2022,North
2022-05-06T19:35:02Z,2022,19,35,126.816,126.816,72.36692,-159.98438,1015.9,-8.44,-999.0,yes,yes,no,300434063194510,SeaCadet,NAL/USIABP,UTQ_2022,North
2022-05-07T01:35:02Z,2022,1,35,127.066,127.066,72.37888,-160.05685,1014.23,-7.06,-999.0,yes,yes,no,300434063194510,SeaCadet,NAL/USIABP,UTQ_2022,North
2022-05-07T07:35:28Z,2022,7,35,127.3163,127.3163,72.40062,-160.11458,1012.61,-7.31,-999.0,yes,yes,no,300434063194510,SeaCadet,NAL/USIABP,UTQ_2022,North
2022-05-07T13:35:02Z,2022,13,35,127.566,127.566,72.42007,-160.15271,1011.15,-7.25,-999.0,yes,yes,no,300434063194510,SeaCadet,NAL/USIABP,UTQ_2022,North
2022-05-07T19:35:36Z,2022,19,35,127.8164,127.8164,72.44312,-160.1873,1010.28,-4.44,-999.0,yes,yes,no,300434063194510,SeaCadet,NAL/USIABP,UTQ_2022,North
2022-05-08T01:35:02Z,2022,1,35,128.066,128.066,72.46497,-160.19644,1010.62,-2.63,-999.0,yes,yes,no,300434063194510,SeaCadet,NAL/USIABP,UTQ_2022,North
2022-05-08T07:34:27Z,2022,7,34,128.3156,128.3156,72.48749,-160.21506,1010.44,-4.5,-999.0,yes,yes,no,300434063194510,SeaCadet,NAL/USIABP,UTQ_2022,North
2022-05-08T13:34:36Z,2022,13,34,128.5657,128.5657,72.50969,-160.24174,1009.44,-5.44,-999.0,yes,yes,no,300434063194510,SeaCadet,NAL/USIABP,UTQ_2022,North
2022-05-08T19:34:45Z,2022,19,34,128.8158,128.8158,72.534,-160.26462,1007.66,-3.31,-999.0,yes,yes,no,300434063194510,SeaCadet,NAL/USIABP,UTQ_2022,North
2022-05-09T01:35:28Z,2022,1,35,129.0663,129.0663,72.55435,-160.29109,1006.09,-1.06,-999.0,yes,yes,no,300434063194510,SeaCadet,NAL/USIABP,UTQ_2022,North
2022-05-09T07:34:45Z,2022,7,34,129.3158,129.3158,72.57089,-160.33057,1005.27,-4.13,-999.0,yes,yes,no,300434063194510,SeaCadet,NAL/USIABP,UTQ_2022,North
2022-05-09T13:35:11Z,2022,13,35,129.5661,129.5661,72.57626,-160.35855,1005.51,-4.75,-999.0,yes,yes,no,300434063194510,SeaCadet,NAL/USIABP,UTQ_2022,North
2022-05-09T19:35:11Z,2022,19,35,129.8161,129.8161,72.57644,-160.39313,1007.21,-2.69,-999.0,yes,yes,no,300434063194510,SeaCadet,NAL/USIABP,UTQ_2022,North
2022-05-10T01:35:11Z,2022,1,35,130.0661,130.0661,72.56755,-160.40227,1010.66,-2.69,-999.0,yes,yes,no,300434063194510,SeaCadet,NAL/USIABP,UTQ_2022,North
2022-05-10T07:35:19Z,2022,7,35,130.3162,130.3162,72.55206,-160.40591,1014.63,-4.13,-999.0,yes,yes,no,300434063194510,SeaCadet,NAL/USIABP,UTQ_2022,North
2022-05-10T13:35:36Z,2022,13,35,130.5664,130.5664,72.5442,-160.38998,1017.28,-5.06,-999.0,yes,yes,no,300434063194510,SeaCadet,NAL/USIABP,UTQ_2022,North
2022-05-10T19:35:54Z,2022,19,35,130.8166,130.8166,72.53886,-160.37009,1016.62,-4.19,-999.0,yes,yes,no,300434063194510,SeaCadet,NAL/USIABP,UTQ_2022,North
2022-05-11T01:34:53Z,2022,1,34,131.0659,131.0659,72.55042,-160.35054,1013.58,-4.5,-999.0,yes,yes,no,300434063194510,SeaCadet,NAL/USIABP,UTQ_2022,North
2022-05-11T07:35:11Z,2022,7,35,131.3161,131.3161,72.57984,-160.3463,1007.53,-4.94,-999.0,yes,yes,no,300434063194510,SeaCadet,NAL/USIABP,UTQ_2022,North
2022-05-11T13:34:53Z,2022,13,34,131.5659,131.5659,72.60344,-160.31593,1004.72,-3.5,-999.0,yes,yes,no,300434063194510,SeaCadet,NAL/USIABP,UTQ_2022,North
2022-05-11T19:34:36Z,2022,19,34,131.8157,131.8157,72.60614,-160.22635,1005.72,-2.94,-999.0,yes,yes,no,300434063194510,SeaCadet,NAL/USIABP,UTQ_2022,North
2022-05-12T01:34:53Z,2022,1,34,132.0659,132.0659,72.60567,-160.14157,1006.59,-3.19,-999.0,yes,yes,no,300434063194510,SeaCadet,NAL/USIABP,UTQ_2022,North
2022-05-12T07:35:36Z,2022,7,35,132.3164,132.3164,72.60227,-160.08627,1007.05,-4.25,-999.0,yes,yes,no,300434063194510,SeaCadet,NAL/USIABP,UTQ_2022,North
2022-05-12T13:35:28Z,2022,13,35,132.5663,132.5663,72.59525,-160.07866,1008.6,-4.63,-999.0,yes,yes,no,300434063194510,SeaCadet,NAL/USIABP,UTQ_2022,North
2022-05-12T19:34:36Z,2022,19,34,132.8157,132.8157,72.58174,-160.11469,1009.93,-3.88,-999.0,yes,yes,no,300434063194510,SeaCadet,NAL/USIABP,UTQ_2022,North
2022-05-13T01:35:02Z,2022,1,35,133.066,133.066,72.57204,-160.15837,1012.46,-3.13,-999.0,yes,yes,no,300434063194510,SeaCadet,NAL/USIABP,UTQ_2022,North
2022-05-13T07:34:53Z,2022,7,34,133.3159,133.3159,72.55772,-160.17688,1016.37,-5.75,-999.0,yes,yes,no,300434063194510,SeaCadet,NAL/USIABP,UTQ_2022,North
2022-05-13T13:35:02Z,2022,13,35,133.566,133.566,72.552,-160.18932,1019.91,-6.25,-999.0,yes,yes,no,300434063194510,SeaCadet,NAL/USIABP,UTQ_2022,North